EST,Max TemperatureF,Mean TemperatureF,Min TemperatureF,Max Dew PointF,MeanDew PointF,Min DewpointF,Max Humidity, Mean Humidity, Min Humidity, Max Sea Level PressureIn, Mean Sea Level PressureIn, Min Sea Level PressureIn, Max VisibilityMiles, Mean VisibilityMiles, Min VisibilityMiles, Max Wind SpeedMPH, Mean Wind SpeedMPH, Max Gust SpeedMPH,PrecipitationIn, CloudCover, Events, WindDirDegrees
2014-2-1,57,43,28,33,25,17,69,51,32,30.18,30.05,29.93,10,10,10,9,3,15,0.00,3,,169
2014-2-2,51,41,30,45,37,26,100,68,35,30.17,30.04,29.93,10,3,0,13,4,16,0.45,8,Fog-Rain-Snow,346
2014-2-3,30,28,26,29,25,21,100,91,81,30.37,30.16,30.03,10,3,0,13,5,18,0.72,8,Fog-Snow,358
2014-2-4,32,27,21,28,24,19,100,89,78,30.39,30.25,29.96,10,7,2,10,4,16,0.12,5,Rain,17
2014-2-5,45,34,23,43,29,18,100,85,69,30.25,29.90,29.61,10,6,0,16,9,23,0.57,8,Fog-Rain-Snow,260
2014-2-6,29,23,17,18,16,12,92,73,53,30.42,30.33,30.25,10,8,2,9,4,15,0.01,7,Snow,265
2014-2-7,26,20,14,18,13,9,84,69,54,30.40,30.36,30.30,10,8,4,12,4,21,T,5,Snow,237
2014-2-8,26,18,10,19,14,7,92,73,54,30.39,30.27,30.18,10,7,1,7,2,9,T,6,Snow,17
2014-2-9,32,27,21,31,25,12,100,86,71,30.19,30.04,29.92,10,4,0,13,3,20,0.12,8,Fog-Snow,247
2014-2-10,23,15,6,14,10,4,84,70,56,30.38,30.26,30.17,10,8,1,8,3,14,T,6,Snow,290
2014-2-11,24,13,2,9,4,0,91,68,45,30.48,30.43,30.34,10,8,4,7,1,9,0.00,2,,15
2014-2-12,32,19,6,21,9,1,88,61,33,30.45,30.25,30.05,10,8,1,13,5,18,T,3,Snow,94
2014-2-13,30,27,23,27,24,19,100,91,81,30.06,29.75,29.58,10,2,0,13,5,17,0.27,7,Fog-Snow,15
2014-2-14,40,33,25,32,25,19,100,74,48,29.73,29.67,29.58,10,8,0,16,6,30,0.05,7,Fog-Snow,216
2014-2-15,32,25,17,32,22,8,100,78,55,30.11,29.81,29.61,10,4,0,13,6,22,0.26,7,Fog-Snow,325
2014-2-16,27,19,11,25,18,9,92,80,67,30.32,30.08,29.95,10,6,1,12,4,16,0.02,8,Snow,240
2014-2-17,41,25,8,29,13,5,91,60,29,30.43,30.17,29.83,10,8,2,22,6,32,0.03,5,Rain-Snow,92
2014-2-18,48,42,35,34,26,18,85,60,34,30.10,29.99,29.87,10,10,7,21,10,30,0.01,4,Rain,208
2014-2-19,53,42,31,45,33,16,0,0,0,30.14,29.88,29.76,10,9,2,21,7,40,0.17,4,Rain,210
2014-2-20,62,45,27,45,35,25,92,68,44,30.15,29.95,29.72,10,10,8,16,7,24,0.06,1,Rain,162
2014-2-21,64,51,38,53,36,18,89,64,38,30.03,29.78,29.59,10,9,2,20,9,31,0.25,4,Rain,221
2014-2-22,56,45,34,24,18,14,59,40,20,30.09,30.03,29.99,10,10,10,18,7,28,0.00,0,,217
2014-2-23,51,40,29,36,30,24,100,73,46,30.07,30.03,29.97,10,7,1,12,4,19,0.20,5,Rain-Snow,273
2014-2-24,34,29,23,30,13,6,92,62,32,30.20,30.13,30.03,10,10,10,16,7,26,0.00,3,,254
2014-2-25,28,25,22,20,17,9,84,67,50,30.15,30.09,30.00,10,6,0,12,5,17,0.03,8,Fog-Snow,259
2014-2-26,26,21,16,20,12,2,88,64,39,30.07,29.95,29.85,10,6,0,13,7,22,0.01,6,Fog-Snow,273
2014-2-27,25,17,8,10,4,-4,67,54,40,30.19,29.90,29.74,10,10,7,20,10,31,T,3,,262
2014-2-28,32,18,3,6,-2,-6,76,49,22,30.36,30.27,30.19,10,10,10,8,2,11,0.00,0,,43